logo tempoitalia

Diretta Meteo Norrkoping, Sveziavenerdì 12 aprile ore 14:50

Mappa
Sereno 13 °C Molto Nuvoloso 24 Ore: T.min 7 T.max 14
Ponente Ovest/Sud-Ovest Km/h 22.2 Punto di rugiada: 8 °C Umidità: 71% Visibilità: 10 Km
Il sole sorge alle: 05:47 Il sole tramonta alle: 20:04
12 Aprile 2024 14:50 tempo osservato: Molto Nuvoloso Molto Nuvoloso 13 71 1017 vento: Nord O/SO 22.2
12 Aprile 2024 14:20 tempo osservato: Molto Nuvoloso Molto Nuvoloso 13 71 1018 vento: Nord O/SO 18.5
12 Aprile 2024 13:50 tempo osservato: Molto Nuvoloso Molto Nuvoloso 13 71 1018 vento: Nord O/SO 18.5
12 Aprile 2024 13:20 tempo osservato: Molto Nuvoloso Molto Nuvoloso 12 71 1018 vento: Nord O 24
12 Aprile 2024 12:50 tempo osservato: Sereno Sereno 12 71 1019 vento: Nord O/SO 25.9
12 Aprile 2024 12:20 tempo osservato: Sereno Sereno 11 76 1019 vento: Nord O 24
12 Aprile 2024 11:50 tempo osservato: Sereno Sereno 10 76 1020 vento: Nord O/SO 18.5
12 Aprile 2024 11:20 tempo osservato: Sereno Sereno 10 76 1019 vento: Nord O/SO 25.9
12 Aprile 2024 10:50 tempo osservato: Sereno Sereno 10 76 1020 vento: Nord O/SO 18.5
12 Aprile 2024 10:20 tempo osservato: Sereno Sereno 10 71 1020 vento: Nord O 29.6
12 Aprile 2024 09:50 tempo osservato: Sereno Sereno 10 71 1020 vento: Nord O 22.2
12 Aprile 2024 09:20 tempo osservato: Sereno Sereno 9 75 1020 vento: Nord O/SO 20.3
12 Aprile 2024 08:50 tempo osservato: Sereno Sereno 9 75 1019 vento: Nord O 20.3
12 Aprile 2024 08:20 tempo osservato: Sereno Sereno 9 75 1019 vento: Nord O/SO 24
12 Aprile 2024 07:50 tempo osservato: Sereno Sereno 9 75 1019 vento: Nord O/SO 18.5
12 Aprile 2024 07:20 tempo osservato: Sereno Sereno 8 81 1020 vento: Nord O 16.7
12 Aprile 2024 06:50 tempo osservato: Sereno Sereno 7 87 1019 vento: Nord O/SO 13
12 Aprile 2024 06:20 tempo osservato: Sereno Sereno 7 81 1019 vento: Nord O 13
12 Aprile 2024 05:50 tempo osservato: Sereno Sereno 7 87 1019 vento: Nord O/SO 18.5
12 Aprile 2024 05:20 tempo osservato: Sereno Sereno 7 87 1019 vento: Nord O 20.3
12 Aprile 2024 04:50 tempo osservato: Sereno Sereno 8 81 1019 vento: Nord O 18.5
12 Aprile 2024 04:20 tempo osservato: Sereno Sereno 8 87 1019 vento: Nord O 16.7
12 Aprile 2024 03:50 tempo osservato: Sereno Sereno 9 81 1018 vento: Nord O 22.2
12 Aprile 2024 03:20 tempo osservato: Sereno Sereno 9 81 1018 vento: Nord O 20.3
12 Aprile 2024 02:50 tempo osservato: Sereno Sereno 10 81 1018 vento: Nord O 22.2
12 Aprile 2024 02:20 tempo osservato: Sereno Sereno 10 81 1018 vento: Nord O 27.8
12 Aprile 2024 01:50 tempo osservato: Sereno Sereno 10 81 1018 vento: Nord O 29.6
12 Aprile 2024 01:20 tempo osservato: Sereno Sereno 11 81 1017 vento: Nord O/SO 35.2
12 Aprile 2024 00:50 tempo osservato: Sereno Sereno 11 81 1017 vento: Nord O 35.2
12 Aprile 2024 00:20 tempo osservato: Sereno Sereno 11 81 1017 vento: Nord O 33.3
11 Aprile 2024 23:50 tempo osservato: Sereno Sereno 11 81 1016 vento: Nord O 31.5
11 Aprile 2024 23:20 tempo osservato: Sereno Sereno 11 81 1016 vento: Nord O/SO 31.5
11 Aprile 2024 22:50 tempo osservato: Sereno Sereno 12 76 1016 vento: Nord O/SO 37
11 Aprile 2024 22:20 tempo osservato: Sereno Sereno 12 76 1015 vento: Nord O/SO 33.3
11 Aprile 2024 21:50 tempo osservato: Sereno Sereno 12 76 1015 vento: Nord O 29.6
11 Aprile 2024 21:20 tempo osservato: Sereno Sereno 12 76 1015 vento: Nord O/SO 37
11 Aprile 2024 20:50 tempo osservato: Sereno Sereno 13 71 1014 vento: Nord O/SO 35.2
11 Aprile 2024 20:20 tempo osservato: Sereno Sereno 13 71 1014 vento: Nord O/SO 35.2
11 Aprile 2024 19:50 tempo osservato: Sereno Sereno 13 71 1014 vento: Nord O/SO 27.8
11 Aprile 2024 19:20 tempo osservato: Sereno Sereno 13 71 1013 vento: Nord O 33.3
11 Aprile 2024 18:50 tempo osservato: Sereno Sereno 13 76 1013 vento: Nord O 35.2
11 Aprile 2024 18:20 tempo osservato: Sereno Sereno 14 71 1013 vento: Nord O/SO 42.6
11 Aprile 2024 17:50 tempo osservato: Nuvoloso Nuvoloso 14 71 1013 vento: Nord O/SO 44.4
11 Aprile 2024 17:20 tempo osservato: Coperto Coperto 14 71 1013 vento: Nord O 44.4
11 Aprile 2024 16:50 tempo osservato: Coperto Coperto 14 71 1012 vento: Nord O 46.3
11 Aprile 2024 16:20 tempo osservato: Molto Nuvoloso Molto Nuvoloso 14 71 1012 vento: Nord O/SO 40.7
11 Aprile 2024 15:50 tempo osservato: Molto Nuvoloso Molto Nuvoloso 14 71 1012 vento: Nord O/SO 33.3